#timestamp,LO_Frequency,Hit,StdDev 
1623578415.8,286047002.1,N
1623578435.7,286047001.8,N
1623578455.5,286047004.0,N
1623578475.4,286047001.8,N
1623578495.2,286047001.8,N
1623578515.0,286047002.6,N
1623578515.9,286047002.6,N
1623578535.8,286046999.7,N
1623578555.6,286047002.7,N
1623578575.5,286047000.2,N
1623578595.3,286047002.8,N
1623578615.1,286046998.8,N
1623578635.9,286046998.6,N
1623578655.7,286046999.3,N
1623578675.5,286046999.3,N
1623578695.4,286046999.0,N
1623578715.2,286047001.1,N
1623578735.1,286046998.4,N
1623578736.0,286046998.4,N
1623578755.8,286046996.7,N
1623578775.6,286046997.1,N
1623578795.5,286046997.5,N
1623578815.3,286046997.1,N
1623578835.2,286046996.5,N
1623578855.9,286046997.0,N
1623578875.7,286046999.3,N
1623578895.6,286046999.6,N
1623578915.4,286046998.2,N
1623578935.3,286046999.4,N
1623578955.1,286046996.6,N
1623578956.0,286046996.6,N
1623578975.8,286046999.4,N
1623578995.7,286046999.1,N
1623579015.5,286046997.2,N
1623579035.3,286046999.3,N
1623579055.2,286046999.1,N
1623579075.0,286046998.4,N
1623579075.9,286046998.4,N
1623579095.8,286046998.1,N
1623579115.6,286047000.7,N
1623579135.4,286047000.3,N
1623579155.3,286047002.3,N
1623579175.1,286047004.3,Y
1623579195.9,286047005.6,P
1623579215.7,286047005.2,N
1623579235.5,286047004.9,N
1623579255.4,286047004.8,N
1623579275.2,286047005.2,N
1623579295.1,286047005.3,N
1623579296.0,286047005.3,N
1623579315.8,286047005.7,N
1623579335.6,286047004.9,N
1623579355.5,286047004.8,N
1623579375.3,286047005.6,N
1623579395.1,286047003.5,N
1623579415.9,286047003.9,N
1623579435.7,286047003.9,N
1623579455.6,286047001.5,N
1623579475.4,286047003.3,N
1623579495.2,286047003.3,N
1623579515.1,286047003.4,N
1623579516.0,286047003.4,N
1623579535.8,286047002.9,N
1623579555.7,286047003.2,N
1623579575.5,286047004.1,N
1623579595.3,286047002.5,N
1623579615.2,286047002.1,N
1623579635.0,286047001.7,N
1623579635.9,286047001.7,N
1623579655.7,286047001.6,N
1623579675.6,286047001.5,N
1623579695.4,286047001.8,N
1623579715.3,286047002.1,N
1623579735.1,286047001.9,N
1623579736.0,286047001.9,N
1623579755.8,286047004.4,Y
1623579775.7,286047001.1,P
1623579795.5,286046999.7,N
1623579815.3,286047002.6,N
1623579835.2,286047000.2,N
1623579855.0,286047001.9,N
1623579855.9,286047001.9,N
1623579875.8,286047003.5,N
1623579895.6,286047003.0,N
1623579915.4,286047004.9,Y
1623579935.3,286047001.4,P
1623579955.1,286047001.9,P
1623579975.9,286047001.7,P
1623579995.7,286047001.6,Y
1623580015.5,286047001.0,P
1623580035.4,286046998.5,P
1623580055.2,286047002.8,N
1623580075.0,286046999.8,N
1623580075.9,286046999.8,N
1623580095.8,286047000.9,N
1623580115.6,286046999.9,N
1623580135.5,286047000.0,N
1623580155.3,286047000.3,N
1623580175.1,286046998.6,N
1623580195.9,286046999.2,N
1623580215.7,286046996.9,N
1623580235.5,286046998.9,N
1623580255.4,286046999.5,N
1623580275.2,286046996.5,N
1623580295.0,286046997.8,N
1623580296.0,286046997.8,N
1623580315.8,286047001.1,N
1623580335.6,286046999.4,N
1623580355.5,286047000.7,N
1623580375.3,286047000.9,N
1623580395.2,286047002.0,N
1623580415.9,286047001.9,N
1623580435.7,286047001.6,N
1623580455.6,286047002.0,N
1623580475.4,286047002.6,N
1623580495.2,286047002.5,N
1623580515.1,286047002.7,N
1623580516.0,286047002.7,N
1623580535.8,286046999.8,N
1623580555.7,286047000.5,N
1623580575.5,286047002.5,N
1623580595.3,286047002.2,N
1623580615.2,286047004.1,N
1623580635.0,286047001.4,N
1623580635.9,286047001.4,N
1623580655.8,286047001.5,N
1623580675.6,286047002.6,N
1623580695.4,286047001.6,N
1623580715.3,286047002.7,N
1623580735.1,286047000.5,N
1623580755.9,286047000.9,N
1623580775.7,286047000.2,N
1623580795.5,286047000.4,N
1623580815.4,286047002.4,N
1623580835.2,286047000.3,N
1623580855.0,286047000.7,N
1623580856.0,286047000.7,N
1623580875.8,286046998.1,N
1623580895.6,286047001.2,N
1623580915.5,286046998.1,N
1623580935.3,286047001.2,N
1623580955.1,286047002.8,N
1623580975.9,286046999.8,N
1623580995.7,286047000.6,N
1623581015.6,286047000.4,N
1623581035.4,286047000.0,N
1623581055.2,286047000.2,N
1623581075.1,286047000.0,N
1623581076.0,286047000.0,N
1623581095.8,286047003.6,N
1623581115.7,286047003.7,N
1623581135.5,286047003.8,N
1623581155.3,286047001.5,N
1623581175.2,286047004.4,Y
1623581195.0,286047002.1,P
1623581195.9,286047002.1,P
1623581215.8,286047002.7,P
1623581235.6,286046999.7,N
1623581255.5,286046999.9,N
1623581275.3,286047002.6,N
1623581295.1,286047003.5,Y
1623581315.9,286047001.7,P
1623581335.7,286047002.8,P
1623581355.5,286046998.3,N
1623581375.4,286046999.4,N
1623581395.2,286046997.4,N
1623581415.1,286046995.0,N
1623581416.0,286046995.0,N
1623581435.8,286046993.8,N
1623581455.6,286046994.6,N
1623581475.5,286046994.7,N
1623581495.3,286046991.7,N
1623581515.1,286046991.9,N
1623581535.9,286046992.2,N
1623581555.7,286046992.3,N
1623581575.6,286046992.2,N
1623581595.4,286046994.7,N
1623581615.2,286046996.0,N
1623581635.1,286046993.8,N
1623581636.0,286046993.8,N
1623581655.8,286046993.9,N
1623581675.6,286046993.5,N
1623581695.5,286046994.7,N
1623581715.3,286046994.6,N
1623581735.1,286046991.7,N
1623581755.9,286046992.2,N
1623581775.7,286046991.7,N
1623581795.6,286046992.3,N
1623581815.4,286046986.3,Y
1623581835.3,286046997.1,P
1623581855.1,286046999.6,N
1623581856.0,286046999.6,N
1623581875.8,286046996.5,N
1623581895.7,286046997.8,N
1623581915.5,286046995.8,N
1623581935.4,286046995.0,Y
1623581955.2,286046999.6,P
1623581975.0,286046997.3,N
1623581975.9,286046997.3,N
1623581995.8,286046997.0,Y
